Change the Weather History Date:

Monday, January 28, 2013

  Actual Average (KONT) Record (KONT)
Temperature  
Mean Temperature 45 °F 54 °F  
Max Temperature 57 °F 65 °F 78 °F (2012)
Min Temperature 33 °F 44 °F 36 °F (1999)
Degree Days  
Heating Degree Days 20 11  
Month to date heating degree days 308  
Since 1 July heating degree days 868  
Cooling Degree Days 0 0  
Month to date cooling degree days 0  
Year to date cooling degree days 0  
Moisture  
Dew Point 36 °F    
Average Humidity 73    
Maximum Humidity 100    
Minimum Humidity 31    
Precipitation  
Precipitation 0.00 in 0.06 in 0.42 in (2008)
Month to date precipitation 3.05  
Year to date precipitation 3.05  
Snow  
Snow 0.00 in - - ()
Month to date snowfall  
Year to date snowfall  
Since 1 July snowfall  
Snow Depth -    
Sea Level Pressure  
Sea Level Pressure 30.08 in    
Wind  
Wind Speed 2 mph (WSW)    
Max Wind Speed 12 mph    
Max Gust Speed 16 mph    
Visibility 5 miles    
Events Fog , Rain    
T = Trace of Precipitation, MM = Missing Value Source: NWS Daily Summary

Daily Weather History Graph

Daily Weather History Graph

Search for Another Location

Airport or City:

Trip Planner

Search our weather history database for the weather conditions in past years. The results will help you decide how hot, cold, wet, or windy it might be!

Date:

Astronomy

Jan. 28, 2013 Rise Set
Actual Time 6:49 AM PST 5:17 PM PST
Civil Twilight 6:23 AM PST 5:44 PM PST
Nautical Twilight 5:53 AM PST 6:14 PM PST
Astronomical Twilight 5:23 AM PST 6:43 PM PST
Moon 7:08 PM PST (1/28) 7:24 AM PST (1/28)
Length of Visible Light 11h 20m
Length of Day
10h 27m
Full, 97% of the Moon is Illuminated
Jan 28
Full
Feb 3
Last Quarter
Feb 9
New
Feb 17
First Quarter
Feb 25
Full

Hourly Weather History & Observations

Time (PST) Temp. Windchill Dew Point Humidity Pressure Visibility Wind Dir Wind Speed Gust Speed Precip Events Conditions
12:39 AM 46.4 °F 43.5 °F 42.8 °F 87% 30.03 in 7.0 mi East 5.8 mph - 0.02 in Rain Light Rain
12:56 AM 44.6 °F 43.1 °F 42.8 °F 93% 30.03 in 10.0 mi South 3.5 mph - N/A   Scattered Clouds
1:56 AM 41.9 °F - 41.9 °F 100% 30.03 in 10.0 mi Calm Calm - 0.00 in   Clear
2:56 AM 41.9 °F 40.0 °F 41.9 °F 100% 30.05 in 10.0 mi South 3.5 mph - N/A   Clear
3:56 AM 37.4 °F - 37.4 °F 100% 30.05 in 10.0 mi Calm Calm - N/A   Clear
4:45 AM 35.6 °F - 35.6 °F 100% 30.05 in 1.8 mi Calm Calm - N/A   Clear
4:48 AM 35.6 °F - 35.6 °F 100% 30.05 in 1.0 mi Calm Calm - N/A   Clear
4:56 AM 34.9 °F - 34.9 °F 100% 30.05 in 0.5 mi Calm Calm - N/A Fog Fog
5:07 AM 33.8 °F - - N/A% 30.05 in 0.2 mi Calm Calm - N/A Fog Fog
5:24 AM 35.6 °F - 33.8 °F 93% 30.05 in 0.5 mi Calm Calm - N/A Fog Fog
5:37 AM 35.6 °F - - N/A% 30.05 in 0.8 mi Calm Calm - N/A   Clear
5:44 AM 35.6 °F - - N/A% 30.05 in 0.5 mi Calm Calm - N/A Fog Fog
5:56 AM 36.0 °F - - N/A% 30.05 in 0.2 mi Calm Calm - N/A Fog Fog
6:04 AM 35.6 °F - - N/A% 30.06 in 0.8 mi Calm Calm - N/A   Clear
6:13 AM 33.8 °F - - N/A% 30.06 in 1.2 mi Calm Calm - N/A   Clear
6:21 AM 33.8 °F - - N/A% 30.07 in 1.0 mi Calm Calm - N/A   Clear
6:23 AM 33.8 °F - - N/A% 30.07 in 1.5 mi Calm Calm - N/A   Clear
6:28 AM 33.8 °F - - N/A% 30.07 in 1.2 mi Calm Calm - N/A   Mostly Cloudy
6:31 AM 33.8 °F - - N/A% 30.07 in 0.8 mi Calm Calm - N/A   Mist
6:39 AM 33.8 °F - - N/A% 30.08 in 0.5 mi Calm Calm - N/A Fog Fog
7:23 AM 33.8 °F - - N/A% 30.08 in 0.2 mi Calm Calm - N/A Fog Fog
7:32 AM 33.8 °F - - N/A% 30.08 in 0.5 mi Calm Calm - N/A Fog Fog
7:46 AM 35.6 °F - - N/A% 30.09 in 0.2 mi Calm Calm - N/A Fog Fog
7:56 AM 37.9 °F - - N/A% 30.09 in 0.5 mi Calm Calm - N/A Fog Fog
7:59 AM 37.4 °F - - N/A% 30.09 in 1.0 mi Calm Calm - N/A   Clear
8:09 AM 42.8 °F 41.1 °F - N/A% 30.09 in 0.8 mi NE 3.5 mph - N/A   Clear
8:12 AM 42.8 °F 41.1 °F - N/A% 30.09 in 1.8 mi NE 3.5 mph - N/A   Clear
8:19 AM 42.8 °F 41.1 °F - N/A% 30.09 in 10.0 mi NE 3.5 mph - N/A   Clear
8:56 AM 45.0 °F - 43.9 °F 96% 30.09 in 10.0 mi Calm Calm - N/A   Clear
9:56 AM 48.2 °F - 42.8 °F 82% 30.12 in 10.0 mi NW 3.5 mph - N/A   Clear
10:56 AM 52.0 °F - 36.9 °F 56% 30.12 in 10.0 mi Calm Calm - N/A   Clear
11:56 AM 54.9 °F - 34.9 °F 47% 30.09 in 10.0 mi Variable 3.5 mph - N/A   Clear
12:56 PM 57.2 °F - 30.2 °F 36% 30.09 in 10.0 mi WNW 5.8 mph - N/A   Clear
1:56 PM 56.8 °F - 32.9 °F 40% 30.08 in 10.0 mi Variable 3.5 mph - N/A   Clear
3:56 PM 57.2 °F - 26.6 °F 31% 30.08 in 10.0 mi SW 4.6 mph - N/A   Clear
4:56 PM 54.0 °F - 32.0 °F 43% 30.10 in 10.0 mi West 11.5 mph 16.1 mph N/A   Clear
5:56 PM 52.0 °F - 32.0 °F 47% 30.11 in 10.0 mi WSW 4.6 mph - N/A   Clear
6:56 PM 51.8 °F - 32.0 °F 47% 30.12 in 10.0 mi WSW 8.1 mph - N/A   Clear
7:56 PM 50.9 °F - 32.0 °F 48% 30.14 in 10.0 mi WSW 4.6 mph - N/A   Clear
8:56 PM 41.9 °F 39.0 °F 32.9 °F 70% 30.16 in 10.0 mi Variable 4.6 mph - N/A   Clear
9:56 PM 41.0 °F - 33.8 °F 76% 30.17 in 10.0 mi Calm Calm - N/A   Clear
10:56 PM 37.9 °F - 36.9 °F 96% 30.18 in 10.0 mi Calm Calm - N/A   Clear
11:56 PM 39.9 °F 35.8 °F 32.9 °F 76% 30.18 in 10.0 mi ESE 5.8 mph - N/A   Clear